LGL264 LFKB-ELLX

Flight info

Callsign LGL264
Flight time 1h 35m
Altitude 24000
Route AKUTI A9 TORTU DCT KUKEV DCT BANKO L615 ODNUP Z64 MOLUS T330 GILIR DCT EQRAZ V36 SORAL DCT GIVOR
Aircraft DH8D/M-SDE2E3FGRY/H

Departure

Time 2026-04-25 04:49
Airport Bastia-Poretta International airport (LFKB)

Arrival

Time 2026-04-25 06:24
Airport Luxembourg-Findel International Airport (ELLX)
Time Latitude Longitude Altitude Speed Heading
2026-04-25 04:29 42.54666 9.48222 34 ft 0 kts 252°
2026-04-25 04:44 42.54680 9.48219 34 ft 8 kts 58°
2026-04-25 04:44 42.54704 9.48270 34 ft 10 kts 37°
2026-04-25 04:45 42.54719 9.48285 34 ft 6 kts 35°
2026-04-25 04:45 42.54781 9.48259 34 ft 13 kts 346°
2026-04-25 04:45 42.54892 9.48228 34 ft 21 kts 345°
2026-04-25 04:45 42.55059 9.48165 34 ft 28 kts 344°
2026-04-25 04:46 42.55272 9.48072 34 ft 34 kts 338°
2026-04-25 04:46 42.55502 9.47955 34 ft 36 kts 344°
2026-04-25 04:46 42.55747 9.47856 34 ft 32 kts 342°
2026-04-25 04:46 42.55823 9.47883 34 ft 3 kts 96°
2026-04-25 04:47 42.55844 9.47969 34 ft 17 kts 62°
2026-04-25 04:47 42.55865 9.48110 34 ft 13 kts 124°
2026-04-25 04:47 42.55846 9.48131 34 ft 1 kts 158°
2026-04-25 04:47 42.55847 9.48131 34 ft 0 kts 154°
2026-04-25 04:48 42.55662 9.48214 34 ft 70 kts 160°
2026-04-25 04:48 42.55236 9.48398 34 ft 122 kts 165°
2026-04-25 04:49 42.54042 9.49027 827 ft 139 kts 155°
2026-04-25 04:49 42.53085 9.49531 1515 ft 152 kts 161°
2026-04-25 04:49 42.52048 9.50186 2209 ft 167 kts 139°
2026-04-25 04:49 42.51610 9.50985 2643 ft 175 kts 112°
2026-04-25 04:50 42.51546 9.52682 3403 ft 183 kts 74°
2026-04-25 04:50 42.52093 9.54280 4194 ft 187 kts 55°
2026-04-25 04:50 42.52874 9.55769 5003 ft 191 kts 50°
2026-04-25 04:50 42.53710 9.57196 5821 ft 192 kts 44°
2026-04-25 04:51 42.54875 9.58025 6638 ft 191 kts
2026-04-25 04:51 42.56158 9.57655 7447 ft 192 kts 328°
2026-04-25 04:51 42.57173 9.56467 8231 ft 196 kts 312°
2026-04-25 04:51 42.58101 9.55056 9001 ft 200 kts 310°
2026-04-25 04:52 42.59024 9.53650 9758 ft 203 kts 311°
2026-04-25 04:52 42.59988 9.52205 10506 ft 207 kts 312°
2026-04-25 04:52 42.60976 9.50738 11218 ft 210 kts 312°
2026-04-25 04:52 42.61990 9.49241 11895 ft 214 kts 312°
2026-04-25 04:53 42.63004 9.47746 12540 ft 217 kts 312°
2026-04-25 04:53 42.64042 9.46218 13169 ft 220 kts 312°
2026-04-25 04:53 42.65082 9.44686 13773 ft 223 kts 312°
2026-04-25 04:53 42.66133 9.43137 14357 ft 226 kts 312°
2026-04-25 04:54 42.67206 9.41553 14927 ft 228 kts 312°
2026-04-25 04:54 42.68299 9.39936 15476 ft 231 kts 312°
2026-04-25 04:54 42.69264 9.38506 15936 ft 233 kts 312°
2026-04-25 04:54 42.70352 9.36896 16431 ft 235 kts 312°
2026-04-25 04:55 42.71443 9.35283 16907 ft 238 kts 313°
2026-04-25 04:55 42.72674 9.33771 17361 ft 240 kts 323°
2026-04-25 04:55 42.74093 9.32581 17824 ft 241 kts 332°
2026-04-25 04:55 42.75615 9.31502 18275 ft 243 kts 333°
2026-04-25 04:56 42.77110 9.30455 18690 ft 245 kts 333°
2026-04-25 04:56 42.78638 9.29361 19098 ft 248 kts 332°
2026-04-25 04:56 42.80169 9.28246 19494 ft 250 kts 332°
2026-04-25 04:56 42.81726 9.27100 19884 ft 252 kts 331°
2026-04-25 04:57 42.83289 9.25947 20262 ft 254 kts 331°
2026-04-25 04:57 42.84843 9.24799 20626 ft 256 kts 331°
2026-04-25 04:57 42.86402 9.23649 20980 ft 258 kts 331°
2026-04-25 04:57 42.87999 9.22471 21331 ft 259 kts 331°
2026-04-25 04:58 42.89597 9.21291 21674 ft 261 kts 330°
2026-04-25 04:58 42.91216 9.20059 22015 ft 263 kts 329°
2026-04-25 04:58 42.92794 9.18804 22339 ft 264 kts 328°
2026-04-25 04:58 42.94388 9.17490 22661 ft 266 kts 327°
2026-04-25 04:59 42.95960 9.16173 22970 ft 267 kts 327°
2026-04-25 04:59 42.97536 9.14849 23272 ft 269 kts 327°
2026-04-25 04:59 42.99155 9.13497 23571 ft 270 kts 327°
2026-04-25 04:59 43.00773 9.12155 23838 ft 271 kts 327°
2026-04-25 05:00 43.02396 9.10815 24008 ft 276 kts 327°
2026-04-25 05:00 43.04034 9.09465 24076 ft 285 kts 327°
2026-04-25 05:00 43.05756 9.08044 24113 ft 294 kts 327°
2026-04-25 05:00 43.07454 9.06640 24126 ft 302 kts 327°
2026-04-25 05:01 43.08425 9.05829 24129 ft 304 kts 327°
2026-04-25 05:01 43.08836 9.05467 24130 ft 302 kts 327°
2026-04-25 05:01 43.10593 9.03953 24161 ft 309 kts 328°
2026-04-25 05:01 43.12445 9.02426 24172 ft 316 kts 328°
2026-04-25 05:02 43.14362 9.00884 24178 ft 323 kts 329°
2026-04-25 05:02 43.16311 8.99314 24182 ft 329 kts 329°
2026-04-25 05:02 43.18318 8.97678 24184 ft 334 kts 328°
2026-04-25 05:02 43.20299 8.96045 24184 ft 339 kts 329°
2026-04-25 05:03 43.22375 8.94708 24179 ft 342 kts 342°
2026-04-25 05:03 43.24497 8.94191 24186 ft 342 kts 358°
2026-04-25 05:03 43.26743 8.94303 24175 ft 344 kts
2026-04-25 05:03 43.29181 8.94702 24161 ft 348 kts
2026-04-25 05:04 43.31583 8.95111 24152 ft 350 kts
2026-04-25 05:04 43.33990 8.95461 24148 ft 352 kts
2026-04-25 05:04 43.36407 8.95726 24148 ft 354 kts
2026-04-25 05:04 43.38850 8.95504 24146 ft 355 kts 347°
2026-04-25 05:05 43.41174 8.94366 24148 ft 355 kts 332°
2026-04-25 05:05 43.43355 8.92697 24125 ft 356 kts 327°
2026-04-25 05:05 43.45472 8.90979 24098 ft 357 kts 327°
2026-04-25 05:05 43.47644 8.89279 24087 ft 356 kts 329°
2026-04-25 05:06 43.49105 8.88167 24083 ft 355 kts 329°
2026-04-25 05:06 43.51973 8.86022 24080 ft 354 kts 330°
2026-04-25 05:06 43.53424 8.84949 24077 ft 353 kts 330°
2026-04-25 05:06 43.55582 8.83359 24076 ft 352 kts 330°
2026-04-25 05:07 43.57712 8.81793 24076 ft 351 kts 330°
2026-04-25 05:07 43.59864 8.80206 24077 ft 350 kts 330°
2026-04-25 05:07 43.62035 8.78599 24079 ft 349 kts 330°
2026-04-25 05:07 43.64162 8.77017 24080 ft 348 kts 330°
2026-04-25 05:08 43.66305 8.75423 24080 ft 348 kts 330°
2026-04-25 05:08 43.68412 8.73866 24080 ft 347 kts 330°
2026-04-25 05:08 43.70572 8.72270 24080 ft 347 kts 330°
2026-04-25 05:08 43.72693 8.70696 24079 ft 346 kts 330°
2026-04-25 05:09 43.74835 8.69096 24079 ft 346 kts 330°
2026-04-25 05:09 43.76965 8.67497 24078 ft 346 kts 330°
2026-04-25 05:09 43.79091 8.65898 24076 ft 346 kts 330°
2026-04-25 05:09 43.81205 8.64306 24073 ft 346 kts 330°
2026-04-25 05:10 43.83120 8.62863 24072 ft 345 kts 330°
2026-04-25 05:10 43.85240 8.61267 24072 ft 345 kts 330°
2026-04-25 05:10 43.87360 8.59671 24073 ft 345 kts 330°
2026-04-25 05:10 43.89459 8.58091 24075 ft 345 kts 330°
2026-04-25 05:11 43.91508 8.56548 24076 ft 345 kts 330°
2026-04-25 05:11 43.93410 8.55112 24077 ft 345 kts 330°
2026-04-25 05:11 43.95432 8.53585 24076 ft 345 kts 330°
2026-04-25 05:12 43.99642 8.50400 24078 ft 345 kts 330°
2026-04-25 05:12 44.01776 8.48783 24079 ft 345 kts 330°
2026-04-25 05:12 44.03876 8.47190 24079 ft 345 kts 330°
2026-04-25 05:12 44.05973 8.45600 24081 ft 344 kts 330°
2026-04-25 05:13 44.08071 8.44008 24083 ft 344 kts 330°
2026-04-25 05:13 44.10128 8.42446 24082 ft 344 kts 330°
2026-04-25 05:13 44.12152 8.40907 24079 ft 344 kts 330°
2026-04-25 05:13 44.13549 8.39843 24079 ft 344 kts 330°
2026-04-25 05:14 44.15709 8.38196 24079 ft 344 kts 330°
2026-04-25 05:14 44.17783 8.36615 24080 ft 344 kts 330°
2026-04-25 05:14 44.19903 8.34998 24080 ft 344 kts 330°
2026-04-25 05:15 44.24094 8.31799 24082 ft 344 kts 330°
2026-04-25 05:15 44.26179 8.30206 24081 ft 344 kts 330°
2026-04-25 05:15 44.28242 8.28628 24081 ft 344 kts 330°
2026-04-25 05:15 44.29735 8.27485 24081 ft 343 kts 330°
2026-04-25 05:16 44.30028 8.27261 24079 ft 339 kts 330°
2026-04-25 05:16 44.32132 8.25652 24082 ft 340 kts 330°
2026-04-25 05:16 44.34229 8.24037 24083 ft 341 kts 330°
2026-04-25 05:16 44.36326 8.22425 24084 ft 341 kts 330°
2026-04-25 05:17 44.38417 8.20820 24083 ft 342 kts 330°
2026-04-25 05:17 44.40476 8.19240 24084 ft 342 kts 330°
2026-04-25 05:17 44.42595 8.17613 24080 ft 343 kts 330°
2026-04-25 05:17 44.44705 8.15989 24076 ft 343 kts 329°
2026-04-25 05:18 44.46797 8.14376 24074 ft 343 kts 329°
2026-04-25 05:18 44.48918 8.12739 24071 ft 343 kts 329°
2026-04-25 05:18 44.51004 8.11128 24069 ft 343 kts 329°
2026-04-25 05:18 44.53097 8.09512 24068 ft 343 kts 329°
2026-04-25 05:19 44.55201 8.07885 24067 ft 344 kts 329°
2026-04-25 05:19 44.57174 8.06357 24067 ft 344 kts 329°
2026-04-25 05:19 44.59270 8.04733 24068 ft 343 kts 329°
2026-04-25 05:19 44.61360 8.03111 24069 ft 344 kts 329°
2026-04-25 05:20 44.63450 8.01490 24070 ft 343 kts 329°
2026-04-25 05:20 44.65552 7.99858 24070 ft 343 kts 329°
2026-04-25 05:20 44.67648 7.98229 24070 ft 344 kts 329°
2026-04-25 05:20 44.69681 7.96650 24070 ft 344 kts 329°
2026-04-25 05:21 44.71836 7.94973 24070 ft 344 kts 329°
2026-04-25 05:21 44.73955 7.93323 24070 ft 344 kts 329°
2026-04-25 05:21 44.76031 7.91704 24070 ft 344 kts 329°
2026-04-25 05:21 44.78070 7.90111 24070 ft 344 kts 329°
2026-04-25 05:22 44.80175 7.88466 24071 ft 344 kts 329°
2026-04-25 05:22 44.81580 7.87367 24071 ft 344 kts 329°
2026-04-25 05:22 44.83609 7.85780 24071 ft 344 kts 329°
2026-04-25 05:22 44.85722 7.84127 24071 ft 344 kts 329°
2026-04-25 05:23 44.87818 7.82486 24071 ft 344 kts 329°
2026-04-25 05:23 44.89856 7.80887 24071 ft 344 kts 329°
2026-04-25 05:23 44.91969 7.79227 24071 ft 344 kts 329°
2026-04-25 05:23 44.93987 7.77642 24072 ft 344 kts 329°
2026-04-25 05:24 44.96092 7.75987 24073 ft 344 kts 329°
2026-04-25 05:24 44.98177 7.74348 24073 ft 344 kts 329°
2026-04-25 05:24 45.00288 7.72686 24077 ft 344 kts 329°
2026-04-25 05:24 45.02356 7.71062 24122 ft 342 kts 329°
2026-04-25 05:25 45.04442 7.69430 24145 ft 341 kts 329°
2026-04-25 05:25 45.06548 7.67779 24156 ft 341 kts 328°
2026-04-25 05:25 45.08574 7.66180 24161 ft 341 kts 328°
2026-04-25 05:25 45.10683 7.64506 24159 ft 341 kts 328°
2026-04-25 05:26 45.12773 7.62841 24155 ft 341 kts 328°
2026-04-25 05:26 45.14813 7.61217 24151 ft 341 kts 328°
2026-04-25 05:26 45.16916 7.59543 24151 ft 341 kts 328°
2026-04-25 05:26 45.18959 7.57918 24146 ft 341 kts 328°
2026-04-25 05:27 45.21027 7.56276 24134 ft 341 kts 328°
2026-04-25 05:27 45.23117 7.54618 24124 ft 341 kts 328°
2026-04-25 05:27 45.25178 7.52984 24117 ft 341 kts 328°
2026-04-25 05:27 45.27282 7.51311 24114 ft 341 kts 328°
2026-04-25 05:28 45.29204 7.49779 24107 ft 341 kts 328°
2026-04-25 05:28 45.31160 7.48219 24116 ft 340 kts 328°
2026-04-25 05:28 45.33229 7.46576 24128 ft 340 kts 328°
2026-04-25 05:28 45.35318 7.44921 24136 ft 339 kts 327°
2026-04-25 05:29 45.37337 7.43316 24147 ft 339 kts 327°
2026-04-25 05:29 45.39427 7.41646 24155 ft 338 kts 327°
2026-04-25 05:29 45.41463 7.40012 24158 ft 338 kts 327°
2026-04-25 05:29 45.43525 7.38351 24159 ft 337 kts 327°
2026-04-25 05:30 45.45568 7.36702 24158 ft 337 kts 327°
2026-04-25 05:30 45.47560 7.35094 24154 ft 337 kts 327°
2026-04-25 05:30 45.48948 7.33974 24153 ft 337 kts 327°
2026-04-25 05:30 45.51660 7.31788 24151 ft 337 kts 327°
2026-04-25 05:31 45.53040 7.30677 24149 ft 337 kts 327°
2026-04-25 05:31 45.55088 7.29029 24153 ft 336 kts 327°
2026-04-25 05:31 45.57153 7.27369 24157 ft 336 kts 327°
2026-04-25 05:31 45.59197 7.25724 24158 ft 336 kts 327°
2026-04-25 05:32 45.61267 7.24055 24159 ft 336 kts 327°
2026-04-25 05:32 45.63314 7.22401 24159 ft 336 kts 327°
2026-04-25 05:32 45.65008 7.21030 24159 ft 336 kts 326°
2026-04-25 05:32 45.66916 7.19441 24160 ft 335 kts 325°
2026-04-25 05:33 45.68924 7.17660 24160 ft 335 kts 323°
2026-04-25 05:33 45.70879 7.15836 24160 ft 335 kts 323°
2026-04-25 05:33 45.72825 7.13979 24161 ft 334 kts 322°
2026-04-25 05:33 45.74767 7.12137 24161 ft 335 kts 323°
2026-04-25 05:34 45.76695 7.10336 24161 ft 335 kts 323°
2026-04-25 05:34 45.78656 7.08528 24162 ft 335 kts 323°
2026-04-25 05:34 45.80626 7.06724 24161 ft 335 kts 323°
2026-04-25 05:34 45.82602 7.04914 24161 ft 335 kts 323°
2026-04-25 05:35 45.84556 7.03119 24161 ft 335 kts 323°
2026-04-25 05:35 45.86514 7.01315 24162 ft 335 kts 323°
2026-04-25 05:35 45.88457 6.99524 24163 ft 334 kts 323°
2026-04-25 05:35 45.90484 6.97658 24166 ft 334 kts 323°
2026-04-25 05:36 45.92400 6.95896 24167 ft 334 kts 323°
2026-04-25 05:36 45.94343 6.94099 24167 ft 333 kts 323°
2026-04-25 05:36 45.96305 6.92273 24167 ft 333 kts 322°
2026-04-25 05:36 45.98280 6.90430 24168 ft 332 kts 322°
2026-04-25 05:37 46.00155 6.88677 24168 ft 332 kts 322°
2026-04-25 05:37 46.01917 6.87030 24171 ft 332 kts 322°
2026-04-25 05:37 46.03914 6.85167 24176 ft 331 kts 323°
2026-04-25 05:37 46.05865 6.83350 24177 ft 331 kts 323°
2026-04-25 05:38 46.07809 6.81542 24179 ft 331 kts 322°
2026-04-25 05:38 46.09142 6.80307 24180 ft 331 kts 322°
2026-04-25 05:38 46.11077 6.78516 24176 ft 331 kts 322°
2026-04-25 05:38 46.12976 6.76749 24166 ft 330 kts 322°
2026-04-25 05:39 46.14890 6.74956 24161 ft 329 kts 322°
2026-04-25 05:39 46.16835 6.73131 24163 ft 328 kts 322°
2026-04-25 05:39 46.18879 6.71609 24160 ft 333 kts 333°
2026-04-25 05:39 46.21170 6.70823 24166 ft 339 kts 346°
2026-04-25 05:40 46.23524 6.70533 24167 ft 341 kts 349°
2026-04-25 05:40 46.25891 6.70321 24162 ft 340 kts 349°
2026-04-25 05:40 46.28249 6.70066 24159 ft 339 kts 348°
2026-04-25 05:40 46.30576 6.69764 24158 ft 338 kts 347°
2026-04-25 05:41 46.32944 6.69429 24158 ft 338 kts 347°
2026-04-25 05:41 46.35325 6.69095 24160 ft 337 kts 347°
2026-04-25 05:41 46.37676 6.68782 24161 ft 337 kts 347°
2026-04-25 05:41 46.39992 6.68490 24162 ft 337 kts 348°
2026-04-25 05:42 46.42290 6.68209 24162 ft 337 kts 347°
2026-04-25 05:42 46.44572 6.67682 24160 ft 331 kts 338°
2026-04-25 05:42 46.46686 6.66512 24160 ft 324 kts 328°
2026-04-25 05:42 46.48625 6.65050 24158 ft 322 kts 325°
2026-04-25 05:43 46.50610 6.63523 24158 ft 323 kts 326°
2026-04-25 05:43 46.52648 6.62038 24160 ft 324 kts 327°
2026-04-25 05:43 46.54658 6.60640 24160 ft 324 kts 328°
2026-04-25 05:43 46.56696 6.59250 24161 ft 324 kts 328°
2026-04-25 05:44 46.58727 6.57857 24161 ft 324 kts 328°
2026-04-25 05:44 46.60755 6.56445 24159 ft 324 kts 327°
2026-04-25 05:44 46.62792 6.55013 24158 ft 325 kts 327°
2026-04-25 05:44 46.64857 6.53550 24157 ft 325 kts 327°
2026-04-25 05:45 46.66881 6.52110 24157 ft 326 kts 327°
2026-04-25 05:45 46.68947 6.50639 24157 ft 327 kts 327°
2026-04-25 05:45 46.70970 6.49202 24157 ft 327 kts 327°
2026-04-25 05:45 46.73052 6.47723 24157 ft 328 kts 327°
2026-04-25 05:46 46.75107 6.46263 24157 ft 328 kts 327°
2026-04-25 05:46 46.76497 6.45274 24157 ft 329 kts 327°
2026-04-25 05:46 46.78770 6.43656 24158 ft 329 kts 327°
2026-04-25 05:46 46.80126 6.42688 24160 ft 329 kts 327°
2026-04-25 05:47 46.82208 6.41202 24161 ft 330 kts 327°
2026-04-25 05:47 46.84286 6.39719 24162 ft 330 kts 327°
2026-04-25 05:47 46.86370 6.38231 24162 ft 331 kts 327°
2026-04-25 05:47 46.88486 6.36722 24162 ft 332 kts 327°
2026-04-25 05:48 46.90550 6.35251 24163 ft 332 kts 327°
2026-04-25 05:48 46.92627 6.33766 24163 ft 332 kts 327°
2026-04-25 05:48 46.94686 6.32291 24163 ft 333 kts 327°
2026-04-25 05:48 46.96785 6.30759 24160 ft 332 kts 327°
2026-04-25 05:49 46.98864 6.29214 24159 ft 331 kts 328°
2026-04-25 05:49 47.00951 6.27681 24158 ft 330 kts 329°
2026-04-25 05:49 47.02972 6.26233 24157 ft 330 kts 329°
2026-04-25 05:49 47.05074 6.24866 24152 ft 332 kts 335°
2026-04-25 05:50 47.07406 6.24175 24156 ft 339 kts 349°
2026-04-25 05:50 47.09765 6.24224 24160 ft 343 kts 357°
2026-04-25 05:50 47.12089 6.24490 24160 ft 343 kts 358°
2026-04-25 05:50 47.14472 6.24735 24159 ft 341 kts 358°
2026-04-25 05:51 47.16873 6.24926 24158 ft 340 kts 358°
2026-04-25 05:51 47.19223 6.25106 24157 ft 338 kts 358°
2026-04-25 05:51 47.21588 6.25306 24157 ft 337 kts 359°
2026-04-25 05:51 47.23921 6.25519 24157 ft 336 kts 359°
2026-04-25 05:52 47.26305 6.25746 24157 ft 335 kts 359°
2026-04-25 05:52 47.28613 6.25966 24157 ft 334 kts 359°
2026-04-25 05:52 47.30946 6.26176 24157 ft 333 kts 359°
2026-04-25 05:52 47.33270 6.26362 24157 ft 332 kts 360°
2026-04-25 05:53 47.35603 6.26555 24157 ft 331 kts
2026-04-25 05:53 47.37890 6.26769 24157 ft 330 kts
2026-04-25 05:53 47.40183 6.27009 24159 ft 330 kts
2026-04-25 05:53 47.41691 6.27176 24160 ft 330 kts
2026-04-25 05:54 47.43984 6.27427 24161 ft 329 kts
2026-04-25 05:54 47.46315 6.27666 24162 ft 329 kts
2026-04-25 05:54 47.50872 6.28074 24158 ft 330 kts
2026-04-25 05:55 47.53204 6.28270 24158 ft 330 kts
2026-04-25 05:55 47.55517 6.28475 24158 ft 330 kts
2026-04-25 05:55 47.57780 6.28692 24159 ft 331 kts
2026-04-25 05:55 47.60078 6.28925 24161 ft 331 kts
2026-04-25 05:56 47.61892 6.29109 24161 ft 331 kts
2026-04-25 05:56 47.64159 6.29334 24161 ft 332 kts
2026-04-25 05:56 47.66484 6.29565 24160 ft 332 kts
2026-04-25 05:56 47.68797 6.29801 24159 ft 333 kts
2026-04-25 05:57 47.70974 6.30016 24159 ft 333 kts
2026-04-25 05:57 47.73292 6.30234 24159 ft 333 kts
2026-04-25 05:57 47.75600 6.30441 24159 ft 334 kts
2026-04-25 05:57 47.77920 6.30643 24159 ft 334 kts
2026-04-25 05:58 47.80207 6.30850 24159 ft 335 kts
2026-04-25 05:58 47.82496 6.31069 24159 ft 335 kts
2026-04-25 05:58 47.84810 6.31328 24157 ft 336 kts
2026-04-25 05:58 47.86980 6.31592 24157 ft 337 kts
2026-04-25 05:59 47.89337 6.31851 24157 ft 338 kts
2026-04-25 05:59 47.91694 6.32068 24158 ft 340 kts 359°
2026-04-25 05:59 47.94036 6.32245 24159 ft 341 kts 359°
2026-04-25 05:59 47.96396 6.32420 24159 ft 342 kts 359°
2026-04-25 06:00 47.98704 6.32616 24159 ft 343 kts 360°
2026-04-25 06:00 48.01075 6.32848 24157 ft 345 kts 360°
2026-04-25 06:00 48.03446 6.33084 24157 ft 348 kts
2026-04-25 06:00 48.05875 6.33280 24158 ft 352 kts
2026-04-25 06:01 48.08367 6.33441 24158 ft 356 kts
2026-04-25 06:01 48.10822 6.33606 24160 ft 359 kts
2026-04-25 06:01 48.13308 6.33817 24161 ft 361 kts
2026-04-25 06:01 48.15833 6.34079 24162 ft 364 kts
2026-04-25 06:02 48.18309 6.34373 24161 ft 365 kts
2026-04-25 06:02 48.20849 6.34708 24161 ft 367 kts
2026-04-25 06:02 48.23391 6.35046 24162 ft 368 kts
2026-04-25 06:02 48.25891 6.35351 24162 ft 370 kts
2026-04-25 06:03 48.28439 6.35607 24163 ft 371 kts
2026-04-25 06:03 48.31054 6.35806 24164 ft 372 kts
2026-04-25 06:03 48.33644 6.35987 24165 ft 373 kts
2026-04-25 06:03 48.36217 6.36201 24167 ft 373 kts
2026-04-25 06:04 48.38841 6.36514 24171 ft 374 kts
2026-04-25 06:04 48.41418 6.36864 24173 ft 374 kts
2026-04-25 06:04 48.43634 6.37142 24174 ft 373 kts
2026-04-25 06:04 48.44456 6.37232 24175 ft 371 kts
2026-04-25 06:05 48.45936 6.37297 24176 ft 369 kts
2026-04-25 06:05 48.48502 6.37405 24177 ft 370 kts
2026-04-25 06:05 48.51070 6.37575 24178 ft 371 kts
2026-04-25 06:05 48.53619 6.37815 24179 ft 372 kts
2026-04-25 06:06 48.56213 6.38120 24182 ft 372 kts
2026-04-25 06:06 48.58785 6.38436 24183 ft 373 kts
2026-04-25 06:06 48.61342 6.38717 24183 ft 373 kts
2026-04-25 06:06 48.63942 6.38936 24184 ft 373 kts
2026-04-25 06:07 48.66523 6.39103 23899 ft 376 kts
2026-04-25 06:07 48.69089 6.39299 23463 ft 365 kts
2026-04-25 06:07 48.71566 6.39535 23038 ft 354 kts
2026-04-25 06:07 48.73988 6.39819 22622 ft 344 kts
2026-04-25 06:08 48.76355 6.40121 22214 ft 334 kts
2026-04-25 06:08 48.78644 6.40406 21822 ft 329 kts
2026-04-25 06:08 48.80876 6.40676 21437 ft 326 kts
2026-04-25 06:08 48.83102 6.40952 21053 ft 322 kts
2026-04-25 06:09 48.85350 6.41234 20664 ft 319 kts
2026-04-25 06:09 48.86779 6.41420 20416 ft 316 kts
2026-04-25 06:09 48.88950 6.41673 20041 ft 314 kts
2026-04-25 06:09 48.91828 6.41942 19544 ft 311 kts
2026-04-25 06:10 48.93244 6.42056 19299 ft 310 kts
2026-04-25 06:10 48.95375 6.42224 18931 ft 308 kts
2026-04-25 06:10 48.97527 6.42401 18559 ft 307 kts
2026-04-25 06:10 49.00317 6.42652 18077 ft 305 kts
2026-04-25 06:11 49.01747 6.42790 17830 ft 305 kts
2026-04-25 06:11 49.03806 6.42996 17474 ft 303 kts
2026-04-25 06:11 49.05900 6.43210 17112 ft 302 kts
2026-04-25 06:11 49.08000 6.43429 16749 ft 300 kts
2026-04-25 06:12 49.10086 6.43647 16389 ft 298 kts
2026-04-25 06:12 49.12143 6.43861 16033 ft 296 kts
2026-04-25 06:12 49.14171 6.44069 15682 ft 294 kts
2026-04-25 06:12 49.16195 6.44275 15332 ft 292 kts
2026-04-25 06:13 49.18196 6.44478 14986 ft 291 kts
2026-04-25 06:13 49.20217 6.44678 14642 ft 288 kts
2026-04-25 06:13 49.22193 6.44481 14323 ft 284 kts 347°
2026-04-25 06:14 49.25815 6.42355 13653 ft 278 kts 334°
2026-04-25 06:14 49.27327 6.41293 13365 ft 277 kts 334°
2026-04-25 06:14 49.27428 6.41223 13345 ft 280 kts 334°
2026-04-25 06:14 49.29090 6.40076 13029 ft 278 kts 334°
2026-04-25 06:15 49.30823 6.38887 12701 ft 276 kts 334°
2026-04-25 06:15 49.32540 6.37710 12375 ft 274 kts 334°
2026-04-25 06:15 49.34283 6.36519 12041 ft 273 kts 334°
2026-04-25 06:15 49.36006 6.35345 11631 ft 274 kts 334°
2026-04-25 06:16 49.37744 6.34163 11257 ft 274 kts 334°
2026-04-25 06:16 49.39552 6.33195 10929 ft 274 kts 342°
2026-04-25 06:16 49.41421 6.32544 10597 ft 273 kts 346°
2026-04-25 06:16 49.43261 6.31981 10271 ft 271 kts 346°
2026-04-25 06:17 49.45069 6.31432 9949 ft 268 kts 347°
2026-04-25 06:17 49.46819 6.30626 9821 ft 254 kts 330°
2026-04-25 06:17 49.48115 6.28930 9701 ft 244 kts 309°
2026-04-25 06:17 49.48983 6.26734 9445 ft 243 kts 294°
2026-04-25 06:18 49.49457 6.24238 9126 ft 245 kts 281°
2026-04-25 06:18 49.49562 6.21566 8768 ft 249 kts 270°
2026-04-25 06:18 49.49384 6.18920 8405 ft 252 kts 262°
2026-04-25 06:18 49.49039 6.16300 8042 ft 255 kts 258°
2026-04-25 06:19 49.48609 6.13653 7675 ft 256 kts 257°
2026-04-25 06:19 49.48117 6.11010 7309 ft 257 kts 255°
2026-04-25 06:19 49.47649 6.08345 7066 ft 251 kts 263°
2026-04-25 06:19 49.47783 6.05747 6833 ft 244 kts 288°
2026-04-25 06:20 49.48550 6.03485 6480 ft 244 kts 306°
2026-04-25 06:20 49.49702 6.01518 6104 ft 245 kts 320°
2026-04-25 06:20 49.51183 6.00442 6032 ft 234 kts 348°
2026-04-25 06:20 49.52775 6.00591 5732 ft 237 kts 15°
2026-04-25 06:21 49.54266 6.01873 5219 ft 248 kts 37°
2026-04-25 06:21 49.55507 6.03745 4655 ft 257 kts 47°
2026-04-25 06:21 49.56617 6.05904 4103 ft 251 kts 52°
2026-04-25 06:21 49.57581 6.08007 3609 ft 234 kts 54°
2026-04-25 06:22 49.58432 6.09991 3146 ft 210 kts 56°
2026-04-25 06:22 49.59152 6.11765 2784 ft 182 kts 57°
2026-04-25 06:22 49.59766 6.13315 2442 ft 160 kts 58°
2026-04-25 06:22 49.60302 6.14694 2182 ft 135 kts 59°
2026-04-25 06:23 49.60734 6.15854 1851 ft 119 kts 59°
2026-04-25 06:23 49.61138 6.16973 1596 ft 119 kts 60°
2026-04-25 06:23 49.61540 6.18071 1384 ft 115 kts 58°
2026-04-25 06:23 49.61915 6.19073 1243 ft 92 kts 58°
2026-04-25 06:24 49.62150 6.19705 1242 ft 51 kts 67°
2026-04-25 06:24 49.62239 6.20007 1242 ft 52 kts 62°
2026-04-25 06:24 49.62257 6.20060 1242 ft 11 kts 62°
2026-04-25 06:25 49.62309 6.20212 1242 ft 21 kts 62°
2026-04-25 06:25 49.62420 6.20349 1242 ft 22 kts
2026-04-25 06:25 49.62597 6.20398 1242 ft 30 kts 16°
2026-04-25 06:25 49.62757 6.20599 1242 ft 34 kts 72°
2026-04-25 06:26 49.62863 6.20964 1242 ft 39 kts 58°
2026-04-25 06:26 49.63011 6.21111 1242 ft 15 kts 15°
2026-04-25 06:26 49.63035 6.21121 1242 ft 0 kts 15°